Location: Gniazdowice
(50.2124°N, 20.2673°E)
Time: 00:50:45
(UTC+00:00)

Cosmos 2098 Rocket - Pass Details

Date: 23 May 2024
Orbit: 360 x 1019 km, 82.9° (Epoch: 18 June)

Event Time Altitude Azimuth Distance (km) Brightness Sun altitude
Rises 23:20:25 0° 5° (N) 3,028 8.3 -18.5°
Reaches altitude 10° 23:23:33 10° 29° (NNE) 2,251 7.1 -18.4°
Drops below altitude 10° 23:29:42 10° 99° (E) 2,490 6.2 -18.2°
Enters shadow 23:36:21 -7° 130° (SE) 4,502 7.2 -17.9°
Exits shadow 00:02:58 -59° 162° (SSE) 11,914 9.5 -16.6°
Maximum altitude 01:06:24 82° 81° (E) 835 3.7 -11.7°
